Location: Berg
(48.5667°N, 13.9833°E)
Time: 09:05:46
(UTC+00:00)

H-2A R/B - Pass Details

Date: 09 April 2020
Orbit: 734 x 836 km, 98.2° (Epoch: 01 June)

Event Time Altitude Azimuth Distance (km) Brightness Sun altitude
Rises 18:16:41 0° 159° (SSE) 3,283 4.9 -5.5°
Reaches altitude 10° 18:19:01 10° 158° (SSE) 2,342 4.1 -5.9°
Maximum altitude 18:24:11 77° 74° (ENE) 796 2.0 -6.7°
Drops below altitude 10° 18:29:14 10° 349° (NNW) 2,295 4.9 -7.5°
Sets 18:31:30 0° 348° (NNW) 3,212 5.7 -7.8°
